Location: Grand Lay
(47.3253°N, 0.9468°E)
Time: 09:28:25
(UTC+00:00)

Cosmos 44 - Pass Details

Date: 18 January 2026
Orbit: 570 x 780 km, 65.1° (Epoch: 16 February)

Event Time Altitude Azimuth Distance (km) Brightness Sun altitude
Exits shadow 05:47:02 30° 304° (WNW) 1,362 4.3 -18.2°
Maximum altitude 05:49:30 57° 239° (WSW) 918 3.6 -17.8°
Drops below altitude 10° 05:54:45 10° 162° (SSE) 2,322 6.4 -16.9°
Sets 05:57:10 0° 159° (SSE) 3,237 7.2 -16.5°
